Weather History for PAGL - November, 2012

Change the Weather History Date:

Sunday, November 4, 2012

  Actual Average Record
Temperature  
Mean Temperature 14 °F -  
Max Temperature 21 °F - - ()
Min Temperature 8 °F - - ()
Degree Days  
Heating Degree Days 50    
Moisture  
Dew Point 6 °F    
Average Humidity 71    
Maximum Humidity 100    
Minimum Humidity 57    
Precipitation  
Precipitation 0.00 in - - ()
Sea Level Pressure  
Sea Level Pressure 30.05 in    
Wind  
Wind Speed 9 mph (NNW)    
Max Wind Speed 20 mph    
Max Gust Speed 26 mph    
Visibility 10 miles    
Events      
T = Trace of Precipitation, MM = Missing Value Source: NWS Daily Summary

Daily Weather History Graph

Daily Weather History Graph

Search for Another Location

Airport or City:

Trip Planner

Search our weather history database for the weather conditions in past years. The results will help you decide how hot, cold, wet, or windy it might be!

Date:

Astronomy

Nov. 04, 2012 Rise Set
Actual Time 9:50 AM AKST 5:20 PM AKST
Civil Twilight 8:54 AM AKST 6:16 PM AKST
Nautical Twilight 7:55 AM AKST 7:14 PM AKST
Astronomical Twilight 6:59 AM AKST 8:10 PM AKST
Moon 9:51 PM AKST 3:05 PM AKST
Length of Visible Light 9h 21m
Length of Day
7h 29m
Waning Gibbous, 70% of the Moon is Illuminated
Nov 4
Waning Gibbous
Nov 6
Last Quarter
Nov 13
New
Nov 20
First Quarter
Nov 28
Full

Hourly Weather History & Observations

Time (AKST) Temp. Windchill Dew Point Humidity Pressure Visibility Wind Dir Wind Speed Gust Speed Precip Events Conditions
12:16 AM 10.4 °F -4.8 °F -2.2 °F 57% 30.04 in 10.0 mi North 12.7 mph - N/A   Clear
12:36 AM 10.4 °F -6.6 °F -2.2 °F 57% 30.04 in 10.0 mi North 16.1 mph - N/A   Clear
12:56 AM 10.4 °F -5.4 °F -2.2 °F 57% 30.04 in 10.0 mi North 13.8 mph - N/A   Clear
1:16 AM 8.6 °F -7.7 °F -2.2 °F 62% 30.04 in 10.0 mi North 13.8 mph - N/A   Clear
1:36 AM 10.4 °F -2.4 °F -2.2 °F 57% 30.05 in 10.0 mi NNW 9.2 mph - N/A   Clear
1:56 AM 10.4 °F -3.3 °F 1.4 °F 67% 30.05 in 10.0 mi NNW 10.4 mph - N/A   Clear
1:16 AM 8.6 °F -4.7 °F -2.2 °F 62% 30.05 in 10.0 mi North 9.2 mph - N/A   Clear
1:36 AM 8.6 °F -5.5 °F -0.4 °F 67% 30.05 in 10.0 mi North 10.4 mph - N/A   Clear
2:16 AM 8.6 °F -7.0 °F -0.4 °F 67% 30.04 in 10.0 mi North 12.7 mph 19.6 mph N/A   Clear
3:36 AM 10.4 °F -3.3 °F -2.2 °F 57% 30.04 in 10.0 mi North 10.4 mph - N/A   Clear
3:56 AM 10.4 °F -4.8 °F 1.4 °F 67% 30.04 in 10.0 mi NNW 12.7 mph - N/A   Clear
4:16 AM 10.4 °F -4.8 °F -0.4 °F 62% 30.04 in 10.0 mi NNW 12.7 mph - N/A   Clear
4:36 AM 10.4 °F -4.1 °F 3.2 °F 73% 30.05 in 10.0 mi NNW 11.5 mph - N/A   Clear
4:56 AM 10.4 °F -3.3 °F 1.4 °F 67% 30.05 in 10.0 mi NNW 10.4 mph - N/A   Clear
5:16 AM 10.4 °F -4.1 °F 1.4 °F 67% 30.05 in 10.0 mi NNW 11.5 mph - N/A   Clear
5:36 AM 8.6 °F -4.7 °F -0.4 °F 67% 30.05 in 10.0 mi North 9.2 mph - N/A   Clear
5:56 AM 8.6 °F -3.7 °F 1.4 °F 73% 30.05 in 10.0 mi North 8.1 mph - N/A   Clear
6:16 AM 10.4 °F -1.5 °F -0.4 °F 62% 30.05 in 10.0 mi NNW 8.1 mph - N/A   Clear
6:36 AM 10.4 °F -1.5 °F 1.4 °F 67% 30.05 in 10.0 mi NNW 8.1 mph - N/A   Clear
7:36 AM 10.4 °F -2.4 °F 3.2 °F 73% 30.05 in 10.0 mi North 9.2 mph - N/A   Clear
7:56 AM 10.4 °F -3.3 °F -0.4 °F 62% 30.05 in 10.0 mi North 10.4 mph - N/A   Clear
8:16 AM 10.4 °F -2.4 °F 1.4 °F 67% 30.05 in 10.0 mi NNW 9.2 mph - N/A   Clear
8:36 AM 10.4 °F -2.4 °F 3.2 °F 73% 30.05 in 10.0 mi NNW 9.2 mph - N/A   Clear
8:56 AM 10.4 °F -1.5 °F 3.2 °F 73% 30.06 in 10.0 mi NNW 8.1 mph - N/A   Clear
9:16 AM 10.4 °F -2.4 °F 1.4 °F 67% 30.06 in 10.0 mi NNW 9.2 mph - N/A   Clear
9:36 AM 10.4 °F -1.5 °F 3.2 °F 73% 30.07 in 10.0 mi NNW 8.1 mph - N/A   Clear
9:56 AM 10.4 °F -2.4 °F 3.2 °F 73% 30.07 in 10.0 mi NNW 9.2 mph - N/A   Clear
10:16 AM 10.4 °F -2.4 °F 6.8 °F 85% 30.07 in 10.0 mi NNW 9.2 mph - N/A   Clear
10:36 AM 10.4 °F -0.4 °F 3.2 °F 73% 30.06 in 10.0 mi NNW 6.9 mph - N/A   Clear
10:56 AM 10.4 °F -0.4 °F 5.0 °F 79% 30.07 in 10.0 mi NNW 6.9 mph - N/A   Clear
11:16 AM 10.4 °F 0.8 °F 3.2 °F 73% 30.07 in 10.0 mi NNW 5.8 mph - N/A   Clear
11:36 AM 10.4 °F -1.5 °F 6.8 °F 85% 30.07 in 10.0 mi NW 8.1 mph - N/A   Clear
11:56 AM 12.2 °F 0.7 °F 6.8 °F 79% 30.07 in 10.0 mi NW 8.1 mph - N/A   Clear
12:16 PM 12.2 °F 4.3 °F 6.8 °F 79% 30.07 in 10.0 mi NW 4.6 mph - N/A   Clear
12:36 PM 12.2 °F 4.3 °F 6.8 °F 79% 30.07 in 10.0 mi NNW 4.6 mph - N/A   Clear
12:56 PM 12.2 °F - 3.2 °F 67% 30.07 in 10.0 mi Calm Calm - N/A   Clear
1:16 PM 14.0 °F - 5.0 °F 67% 30.07 in 10.0 mi Calm Calm - N/A   Clear
1:36 PM 15.8 °F 10.2 °F 5.0 °F 62% 30.06 in 10.0 mi WNW 3.5 mph - N/A   Clear
1:56 PM 15.8 °F 8.6 °F 5.0 °F 62% 30.06 in 10.0 mi West 4.6 mph - N/A   Clear
2:16 PM 17.6 °F 8.2 °F 8.6 °F 68% 30.05 in 10.0 mi NW 6.9 mph - N/A   Clear
2:36 PM 17.6 °F 9.3 °F 6.8 °F 63% 30.05 in 10.0 mi North 5.8 mph - N/A   Clear
2:56 PM 19.4 °F 11.5 °F 6.8 °F 58% 30.05 in 10.0 mi NW 5.8 mph - N/A   Clear
3:16 PM 19.4 °F 11.5 °F 8.6 °F 63% 30.04 in 10.0 mi North 5.8 mph - N/A   Clear
3:36 PM 19.4 °F - 6.8 °F 58% 30.04 in 10.0 mi Calm Calm - N/A   Partly Cloudy
3:56 PM 21.2 °F 14.9 °F 8.6 °F 58% 30.05 in 10.0 mi NNW 4.6 mph - N/A   Mostly Cloudy
4:16 PM 19.4 °F 14.3 °F 12.2 °F 74% 30.05 in 10.0 mi WSW 3.5 mph - N/A   Overcast
4:36 PM 21.2 °F - 10.4 °F 63% 30.05 in 10.0 mi Calm Calm - N/A   Overcast
4:56 PM 21.2 °F - 12.2 °F 68% 30.05 in 10.0 mi Calm Calm - N/A   Mostly Cloudy
5:16 PM 19.4 °F - 10.4 °F 68% 30.04 in 10.0 mi Calm Calm - N/A   Partly Cloudy
5:36 PM 19.4 °F 14.3 °F 12.2 °F 74% 30.04 in 10.0 mi ENE 3.5 mph - N/A   Mostly Cloudy
5:56 PM 19.4 °F 14.3 °F 14.0 °F 80% 30.04 in 10.0 mi ENE 3.5 mph - N/A   Overcast
6:16 PM 19.4 °F - 15.8 °F 86% 30.04 in 10.0 mi Calm Calm - N/A   Overcast
6:36 PM 19.4 °F 14.3 °F 12.2 °F 74% 30.04 in 10.0 mi NE 3.5 mph - N/A   Scattered Clouds
6:56 PM 19.4 °F - 15.8 °F 86% 30.04 in 10.0 mi Calm Calm - N/A   Mostly Cloudy
7:16 PM 19.4 °F 14.3 °F 17.6 °F 93% 30.04 in 10.0 mi East 3.5 mph - N/A   Mostly Cloudy
7:36 PM 19.4 °F 14.3 °F 17.6 °F 93% 30.05 in 10.0 mi East 3.5 mph - N/A   Scattered Clouds
7:56 PM 19.4 °F - 19.4 °F 100% 30.05 in 10.0 mi Calm Calm - N/A   Overcast
8:16 PM 21.2 °F - 17.6 °F 86% 30.05 in 10.0 mi Calm Calm - N/A   Overcast
8:36 PM 19.4 °F 14.3 °F 17.6 °F 93% 30.05 in 10.0 mi North 3.5 mph - N/A   Overcast
8:56 PM 19.4 °F 12.8 °F 17.6 °F 93% 30.06 in 10.0 mi WNW 4.6 mph - N/A   Mostly Cloudy
9:16 PM 21.2 °F 7.3 °F 14.0 °F 74% 30.06 in 10.0 mi North 16.1 mph 23.0 mph N/A   Partly Cloudy
9:36 PM 21.2 °F 6.0 °F 12.2 °F 68% 30.05 in 10.0 mi North 19.6 mph 24.2 mph N/A   Clear
9:56 PM 21.2 °F 7.3 °F 12.2 °F 68% 30.05 in 10.0 mi North 16.1 mph 26.5 mph N/A   Clear
10:16 PM 21.2 °F 6.8 °F 12.2 °F 68% 30.06 in 10.0 mi North 17.3 mph - N/A   Clear
10:36 PM 19.4 °F 6.6 °F 12.2 °F 74% 30.06 in 10.0 mi North 12.7 mph 21.9 mph N/A   Clear
10:56 PM 19.4 °F 7.2 °F 12.2 °F 74% 30.07 in 10.0 mi North 11.5 mph - N/A   Clear